Regional Weather Roundup
Issued by NWS

Home | Current Version | Previous Version | Graphics & Text | Print | Product List | Glossary On
Versions: 1 2 3 4 5 6 7 8 9 10 11 12 13 14 15 16 17 18 19 20 21 22 23 24 25 26 27 28 29 30 31 32 33 34 35 36 37 38 39 40 41 42 43 44 45 46 47 48 49 50
000
ASUS43 KBIS 042110
RWRND

NORTH DAKOTA REGIONAL WEATHER ROUNDUP
NATIONAL WEATHER SERVICE BISMARCK ND
400 PM CDT SAT JUL 04 2015

NOTE: "FAIR" INDICATES FEW OR NO CLOUDS BELOW 12,000 FEET WITH NO
SIGNIFICANT WEATHER AND/OR OBSTRUCTIONS TO VISIBILITY.


NDZ001>003-009>011-017-042200-
NORTHWEST NORTH DAKOTA

CITY           SKY/WX    TMP DP  RH WIND       PRES   REMARKS
WILLISTON      SUNNY     97  53  22 S12G17    29.64F HX  94
MINOT          SUNNY     88  66  48 S14G22    29.70F HX  90
MINOT AFB      SUNNY     90  71  53 S15       29.68F HX  96
$$

NDZ018>021-031>035-040>046-042200-
SOUTHWEST NORTH DAKOTA

CITY           SKY/WX    TMP DP  RH WIND       PRES   REMARKS
BISMARCK       SUNNY     88  71  57 S12       29.75F HX  94
DICKINSON      SUNNY     88  65  46 SW12      29.75F HX  90
GARRISON         N/A     86  69  56 S13       29.72F HX  90
HETTINGER ARPT SUNNY     87  62  43 SW3       29.80S
$$

NDZ004>008-012>016-024-026-027-054-042200-
NORTHEAST NORTH DAKOTA

CITY           SKY/WX    TMP DP  RH WIND       PRES   REMARKS
GRAND FORKS    MOSUNNY   86  67  52 S16G23    29.76F HAZE
GRND FRKS AFB  SUNNY     85  69  57 S16       29.77F
DEVILS LAKE    SUNNY     88  64  45 S16       29.74F
$$

NDZ022-023-025-028>030-036>039-047>053-042200-
SOUTHEAST NORTH DAKOTA

CITY           SKY/WX    TMP DP  RH WIND       PRES   REMARKS
FARGO          MOSUNNY   83  67  58 SE15G24   29.81F
JAMESTOWN      SUNNY     86  65  49 S14       29.78F
$$



USA.gov is the U.S. government's official web portal to all federal, state and local government web resources and services.